Weather History for Barter Island, AK

Change the Weather History Date:

Sunday, September 15, 2013

  Actual Average Record
Temperature  
Mean Temperature 30 °F -  
Max Temperature 34 °F 35 °F 96 °F (2001)
Min Temperature 26 °F 29 °F 24 °F (1996)
Degree Days  
Heating Degree Days 35    
Moisture  
Dew Point 28 °F    
Average Humidity 93    
Maximum Humidity 100    
Minimum Humidity 79    
Precipitation  
Precipitation 0.00 in - - ()
Sea Level Pressure  
Sea Level Pressure 30.22 in    
Wind  
Wind Speed 17 mph (NW)    
Max Wind Speed 24 mph    
Max Gust Speed 26 mph    
Visibility 5 miles    
Events Fog , Rain , Snow    
Averages and records for this station are not official NWS values.
T = Trace of Precipitation, MM = Missing Value Source: NWS Daily Summary

Daily Weather History Graph

Daily Weather History Graph

Search for Another Location

Airport:

Trip Planner

Search our weather history database for the weather conditions in past years. The results will help you decide how hot, cold, wet, or windy it might be!

Date:

Astronomy

Sep. 15, 2013 Rise Set
Actual Time 6:48 AM AKDT 8:07 PM AKDT
Civil Twilight 5:43 AM AKDT 9:11 PM AKDT
Nautical Twilight 4:15 AM AKDT 10:38 PM AKDT
Astronomical Twilight 2:01 AM AKDT 12:56 AM AKDT
Moon 7:15 PM AKDT (9/15) 12:25 AM AKDT (9/15)
Length of Visible Light 15h 27m
Length of Day
13h 19m
Waxing Gibbous, 83% of the Moon is Illuminated
Sep 15
Waxing Gibbous
Sep 19
Full
Sep 26
Last Quarter
Oct 4
New
Oct 11
First Quarter

Hourly Weather History & Observations

Time (AKDT) Temp. Windchill Dew Point Humidity Pressure Visibility Wind Dir Wind Speed Gust Speed Precip Events Conditions
12:01 AM 34.0 °F 22.7 °F 33.1 °F 96% 30.02 in 10.0 mi West 19.6 mph - N/A   Overcast
12:28 AM 33.8 °F 22.5 °F 33.8 °F 100% 30.02 in 10.0 mi West 19.6 mph - 0.00 in Rain Light Rain
12:44 AM 33.8 °F 22.8 °F 33.8 °F 100% 30.03 in 9.0 mi West 18.4 mph - 0.00 in   Overcast
1:01 AM 33.8 °F 22.8 °F 33.8 °F 100% 30.03 in 4.0 mi WNW 18.4 mph - 0.00 in Rain Light Rain
1:20 AM 33.8 °F 22.2 °F 33.8 °F 100% 30.04 in 3.0 mi West 20.7 mph - 0.00 in Rain Light Rain
1:40 AM 33.8 °F 22.2 °F 33.8 °F 100% 30.04 in 2.5 mi West 20.7 mph - 0.00 in Rain Light Rain
2:01 AM 34.0 °F 22.4 °F 33.1 °F 96% 30.05 in 5.0 mi WNW 20.7 mph - 0.00 in   Overcast
3:01 AM 33.1 °F 20.6 °F 32.0 °F 96% 30.08 in 10.0 mi WNW 23.0 mph - N/A Rain Light Rain
3:29 AM 32.0 °F 20.8 °F 30.2 °F 93% 30.07 in 2.5 mi NNW 17.3 mph - 0.00 in Rain Light Rain
3:38 AM 32.0 °F 20.5 °F 30.2 °F 93% 30.08 in 4.0 mi North 18.4 mph - 0.00 in Snow Light Snow
3:56 AM 32.0 °F 20.8 °F 30.2 °F 93% 30.09 in 4.0 mi NNW 17.3 mph - 0.00 in Snow Light Snow
4:01 AM 32.0 °F 20.5 °F 30.2 °F 93% 30.09 in 2.5 mi NNW 18.4 mph - 0.00 in Snow Light Snow
4:09 AM 30.2 °F 18.5 °F 30.2 °F 100% 30.10 in 3.0 mi NNW 17.3 mph - 0.00 in Snow Light Snow
4:19 AM 30.2 °F 18.9 °F 28.4 °F 93% 30.11 in 6.0 mi NNW 16.1 mph - 0.00 in Snow Light Snow
4:27 AM 30.2 °F 18.5 °F 30.2 °F 100% 30.11 in 5.0 mi NNW 17.3 mph - 0.00 in Snow Light Snow
4:38 AM 30.2 °F 18.5 °F 30.2 °F 100% 30.12 in 5.0 mi NNW 17.3 mph - 0.00 in Snow Light Snow
4:53 AM 30.2 °F 17.8 °F 28.4 °F 93% 30.12 in 2.0 mi NNW 19.6 mph - 0.00 in Snow Light Snow
5:30 AM 30.2 °F 17.4 °F 28.4 °F 93% 30.15 in 2.5 mi NNW 20.7 mph - N/A Snow Light Snow
6:01 AM 30.2 °F 17.8 °F 28.4 °F 93% 30.16 in 2.5 mi NW 19.6 mph - N/A Snow Light Snow
6:10 AM 30.2 °F 17.4 °F 28.4 °F 93% 30.16 in 3.0 mi NNW 20.7 mph - N/A Snow Light Snow
6:18 AM 30.2 °F 17.8 °F 28.4 °F 93% 30.17 in 2.0 mi NNW 19.6 mph - N/A Snow Light Snow
6:28 AM 30.2 °F 17.8 °F 28.4 °F 93% 30.17 in 2.0 mi NNW 19.6 mph - N/A Snow Light Snow
6:36 AM 30.2 °F 18.1 °F 28.4 °F 93% 30.18 in 1.5 mi NW 18.4 mph - N/A Snow Light Snow
7:01 AM 30.0 °F 18.3 °F 28.0 °F 92% 30.18 in 5.0 mi NNW 17.3 mph - N/A Snow Light Snow
7:20 AM 30.2 °F 18.5 °F 28.4 °F 93% 30.19 in 3.0 mi NW 17.3 mph - 0.00 in Snow Light Snow
8:01 AM 30.0 °F 20.0 °F 28.0 °F 92% 30.20 in 5.0 mi NW 12.7 mph - N/A Snow Light Snow
8:18 AM 30.2 °F 20.8 °F 28.4 °F 93% 30.21 in 2.5 mi NW 11.5 mph - 0.00 in Snow Light Snow
8:26 AM 30.2 °F 20.2 °F 28.4 °F 93% 30.21 in 1.0 mi NW 12.7 mph - 0.00 in Snow Light Snow
8:31 AM 30.2 °F 19.8 °F 28.4 °F 93% 30.21 in 1.2 mi NW 13.8 mph - 0.00 in Snow Light Snow
8:35 AM 30.2 °F 20.8 °F 28.4 °F 93% 30.22 in 2.0 mi NW 11.5 mph - 0.00 in Snow Light Snow
8:38 AM 30.2 °F 19.3 °F 28.4 °F 93% 30.22 in 7.0 mi WNW 15.0 mph - 0.00 in Snow Light Snow
9:01 AM 30.9 °F 20.7 °F 28.0 °F 89% 30.22 in 4.0 mi NW 13.8 mph - N/A Snow Light Snow
9:23 AM 30.2 °F 19.8 °F 28.4 °F 93% 30.23 in 9.0 mi NW 13.8 mph - 0.00 in Snow Light Snow
9:33 AM 30.2 °F 19.8 °F 26.6 °F 86% 30.23 in 8.0 mi NW 13.8 mph - 0.00 in Snow Light Snow
10:01 AM 32.0 °F 21.2 °F 27.0 °F 82% 30.24 in 10.0 mi NW 16.1 mph - N/A   Unknown
10:16 AM 32.0 °F 20.1 °F 26.6 °F 80% 30.24 in 10.0 mi NW 19.6 mph - 0.00 in   Overcast
11:01 AM 32.0 °F 20.5 °F 26.1 °F 79% 30.25 in 10.0 mi NW 18.4 mph - 0.00 in   Overcast
12:01 PM 30.9 °F 19.1 °F 26.1 °F 82% 30.27 in 10.0 mi WNW 18.4 mph - N/A   Overcast
1:01 PM 30.9 °F 17.5 °F 26.1 °F 82% 30.29 in 10.0 mi WNW 24.2 mph - N/A   Overcast
2:01 PM 30.9 °F 17.5 °F 26.1 °F 82% 30.31 in 10.0 mi West 24.2 mph - N/A   Overcast
2:56 PM 30.2 °F 18.1 °F 28.4 °F 93% 30.31 in 1.8 mi NW 18.4 mph 26.5 mph 0.00 in Snow Light Snow
3:01 PM 30.0 °F 19.1 °F 28.0 °F 92% 30.31 in 1.2 mi NW 15.0 mph 26.5 mph 0.00 in Snow Light Snow
3:03 PM 30.2 °F 18.5 °F 28.4 °F 93% 30.31 in 1.0 mi NW 17.3 mph - 0.00 in Snow Light Snow
3:05 PM 30.2 °F 18.5 °F 28.4 °F 93% 30.31 in 0.5 mi NNW 17.3 mph - 0.00 in Fog , Snow Light Snow
3:31 PM 28.4 °F 16.6 °F 26.6 °F 93% 30.32 in 0.8 mi NNW 16.1 mph - N/A Snow Light Snow
3:39 PM 28.4 °F 16.6 °F 26.6 °F 93% 30.32 in 1.2 mi NNW 16.1 mph - N/A Snow Light Snow
3:49 PM 28.4 °F 16.6 °F 26.6 °F 93% 30.32 in 0.8 mi NNW 16.1 mph - N/A Snow Light Snow
3:56 PM 28.4 °F 16.2 °F 26.6 °F 93% 30.32 in 1.0 mi NNW 17.3 mph - N/A Snow Light Snow
3:59 PM 28.4 °F 16.2 °F 26.6 °F 93% 30.32 in 1.2 mi NNW 17.3 mph - N/A Snow Light Snow
4:01 PM 28.9 °F 17.3 °F 27.0 °F 92% 30.32 in 1.5 mi NNW 16.1 mph - N/A Snow Light Snow
4:10 PM 28.4 °F 16.2 °F 26.6 °F 93% 30.32 in 2.0 mi NW 17.3 mph - 0.00 in   Overcast
4:13 PM 28.4 °F 15.8 °F 26.6 °F 93% 30.32 in 3.0 mi NW 18.4 mph - 0.00 in   Overcast
4:31 PM 28.4 °F 17.0 °F 26.6 °F 93% 30.32 in 3.0 mi NW 15.0 mph - 0.00 in Snow Light Snow
4:57 PM 28.4 °F 16.2 °F 26.6 °F 93% 30.32 in 2.5 mi NW 17.3 mph - 0.00 in   Overcast
5:01 PM 28.4 °F 17.0 °F 26.6 °F 93% 30.32 in 5.0 mi NW 15.0 mph - 0.00 in   Overcast
5:39 PM 28.4 °F 15.8 °F 26.6 °F 93% 30.31 in 8.0 mi NNW 18.4 mph - 0.00 in   Overcast
5:52 PM 28.4 °F 16.2 °F 26.6 °F 93% 30.32 in 2.0 mi NW 17.3 mph - 0.00 in Snow Light Snow
5:59 PM 28.4 °F 16.2 °F 26.6 °F 93% 30.32 in 1.5 mi NW 17.3 mph - 0.00 in Snow Light Snow
6:01 PM 28.4 °F 15.8 °F 26.6 °F 93% 30.32 in 2.0 mi NW 18.4 mph - 0.00 in   Overcast
6:10 PM 28.4 °F 15.8 °F 26.6 °F 93% 30.32 in 7.0 mi NNW 18.4 mph - 0.00 in   Overcast
7:01 PM 28.4 °F 18.0 °F 24.8 °F 86% 30.32 in 10.0 mi NW 12.7 mph - N/A   Overcast
9:01 PM 28.0 °F 18.6 °F 24.1 °F 85% 30.33 in 10.0 mi NW 10.4 mph - N/A   Unknown
9:14 PM 28.4 °F 18.5 °F 24.8 °F 86% 30.33 in 10.0 mi NW 11.5 mph - N/A   Overcast
9:45 PM 28.4 °F 19.1 °F 26.6 °F 93% 30.33 in 7.0 mi North 10.4 mph - 0.00 in Snow Light Snow
10:01 PM 28.0 °F 20.8 °F 26.1 °F 92% 30.33 in 5.0 mi North 6.9 mph - 0.00 in Snow Light Snow
10:54 PM 26.6 °F 17.5 °F 26.6 °F 100% 30.33 in 5.0 mi North 9.2 mph - N/A Snow Light Snow
11:01 PM 26.6 °F 18.2 °F 26.6 °F 100% 30.33 in 3.0 mi North 8.1 mph - N/A   Overcast
11:09 PM 26.6 °F 18.2 °F 26.6 °F 100% 30.33 in 2.5 mi North 8.1 mph - N/A   Overcast
11:23 PM 26.6 °F 18.2 °F 26.6 °F 100% 30.33 in 5.0 mi North 8.1 mph - N/A   Overcast
11:49 PM 26.6 °F 20.0 °F 24.8 °F 93% 30.33 in 8.0 mi North 5.8 mph - N/A   Overcast